Location: Unspecified
(35.7250°N, 0.0000°E)
Time: 14:01:35
(UTC+00:00)

Vanguard 1 - Pass Details

Date: 28 June 2019
Orbit: 653 x 3830 km, 34.3° (Epoch: 15 July)

Event Time Altitude Azimuth Distance (km) Brightness Sun altitude
Rises 22:32:51 0° 215° (SW) 7,551 14.3 -27.3°
Reaches altitude 10° 22:38:08 10° 209° (SSW) 6,746 14.0 -27.7°
Maximum altitude 22:59:22 45° 145° (SE) 4,483 12.8 -29.1°
Drops below altitude 10° 23:16:48 10° 81° (E) 5,691 13.9 -30.0°
Sets 23:20:42 0° 75° (ENE) 6,347 14.3 -30.2°
